Location: Tucson
(32.2217°N, 110.9265°W)
Time: 19:52:39
(UTC-07:00)

Tiangong 2 - Visible Passes

Search period start: 19 March 2019 00:00
Search period end: 29 March 2019 00:00
Orbit: 379 x 390 km, 42.8° (Epoch: 19 March)

Date Brightness Start Highest point End Pass type
(mag) Time Alt. Az. Time Alt. Az. Time Alt. Az.
19 Mar 3.7 05:09:24 11° NNW 05:11:02 15° NNE 05:13:02 10° NE visible
20 Mar 4.5 04:12:45 10° NE 04:12:45 10° NE 04:12:51 10° NE visible
20 Mar 2.7 05:45:49 10° NW 05:48:42 30° NNE 05:51:34 10° E visible
21 Mar 3.2 04:48:22 19° N 04:49:04 20° NNE 04:51:31 10° ENE visible
22 Mar 1.7 05:24:07 15° NW 05:26:32 55° NNE 05:29:39 10° ESE visible
23 Mar 3.2 04:27:45 26° NE 04:27:45 26° NE 04:29:49 10° E visible
24 Mar 0.9 05:03:48 58° W 05:04:16 72° SSW 05:07:25 10° SE visible
25 Mar 4.4 04:07:46 11° ESE 04:07:46 11° ESE 04:07:51 10° ESE visible
25 Mar 2.9 05:40:02 13° WSW 05:41:14 16° SW 05:43:14 10° S visible
26 Mar 3.6 04:44:11 14° SSE 04:44:11 14° SSE 04:44:44 10° SSE visible
27 Mar 3.3 20:11:03 10° SSW 20:11:59 17° SSW 20:11:59 17° SSW visible
28 Mar 2.9 19:12:28 10° S 19:14:30 16° SE 19:16:14 11° ESE visible
28 Mar 4.1 20:47:58 10° WSW 20:48:31 14° WSW 20:48:31 14° WSW visible
